XML Sitemap

This is a XML Sitemap which is supposed to be processed by search engines which follow the XML Sitemap standard like Ask.com, Bing, Google and Yahoo.
It was generated using the WordPress content management system and the Google Sitemap Generator Plugin by Arne Brachhold.
You can find more information about XML sitemaps on sitemaps.org and Google's list of sitemap programs.

URLPriorityChange frequencyLast modified (GMT)
https://100frames.com/33-heb-isd-school-calendar/50%Daily2019-03-11 04:47
https://100frames.com/33-printable-december-at-a-glance-calendar/50%Daily2019-03-11 04:45
https://100frames.com/35-umass-boston-academic-calendar/50%Daily2019-03-11 04:45
https://100frames.com/32-newport-oregon-events-calendar/50%Daily2019-03-11 04:42
https://100frames.com/32-printable-july-calendar-template/50%Daily2019-03-11 04:41
https://100frames.com/33-printable-calendar-jan-to-march-2019/50%Daily2019-03-11 04:39
https://100frames.com/33-daily-printable-calendar-free/50%Daily2019-03-11 04:36
https://100frames.com/30-may-2019-calendar-printable-full-page/50%Daily2019-03-11 04:35
https://100frames.com/31-high-school-calendar-2019/50%Daily2019-03-11 04:34
https://100frames.com/24-free-printable-excel-calendar-2019/50%Daily2019-03-11 04:32
https://100frames.com/31-printable-calendar-for-2019-philippines/50%Daily2019-03-11 04:32
https://100frames.com/34-december-2019-calendar-printable-for-kids/50%Daily2019-03-11 04:29
https://100frames.com/30-monthly-calendar-on-1-page-printable/50%Daily2019-03-11 04:27
https://100frames.com/30-modern-calendar-printable/50%Daily2019-03-11 04:25
https://100frames.com/33-july-2019-printable-calendar-imom/50%Daily2019-03-11 04:24
https://100frames.com/35-stamford-school-calendar/50%Daily2019-03-11 04:22
https://100frames.com/32-2019-full-page-calendar-printable/50%Daily2019-03-11 04:21
https://100frames.com/34-printable-bold-calendar/50%Daily2019-03-11 04:19
https://100frames.com/33-free-printable-calendar-my-little-pony/50%Daily2019-03-11 04:17
https://100frames.com/35-monthly-calendar-pages-2019-2/50%Daily2019-03-11 04:15
https://100frames.com/30-printable-calendar-september-2019-word/50%Daily2019-03-11 04:14
https://100frames.com/30-rapid-city-events-calendar/50%Daily2019-03-11 04:12
https://100frames.com/22-printable-weekly-calendar-with-hours-monday-through-friday/50%Daily2019-03-11 04:10
https://100frames.com/32-april-2019-printable-calendar-with-lines/50%Daily2019-03-11 04:11
https://100frames.com/16-blank-march-calendar-2019/50%Daily2019-03-11 04:08
https://100frames.com/31-july-2009-calendar-printable/50%Daily2019-03-11 04:06
https://100frames.com/35-create-printable-event-calendar/50%Daily2019-03-11 04:05
https://100frames.com/33-countdown-calendar-printable-vacation/50%Daily2019-03-11 04:04
https://100frames.com/30-free-cute-printable-calendar/50%Daily2019-03-11 04:01
https://100frames.com/34-june-2019-monthly-calendar/50%Daily2019-03-11 04:00
https://100frames.com/35-celebration-of-the-dead/50%Daily2019-03-11 03:59
https://100frames.com/32-home-printables-calendars/50%Daily2019-03-11 03:56
https://100frames.com/34-free-printable-chinese-zodiac-calendar/50%Daily2019-03-11 03:55
https://100frames.com/31-tipitinas-calendar/50%Daily2019-03-11 03:54
https://100frames.com/34-calendar-making-software/50%Daily2019-03-11 03:52
https://100frames.com/31-blank-february-calendar-to-print/50%Daily2019-03-11 03:50
https://100frames.com/25-december-calendar-template/50%Daily2019-03-11 03:49
https://100frames.com/32-august-printable/50%Daily2019-03-11 03:47
https://100frames.com/21-1998-calendar/50%Daily2019-03-11 03:45
https://100frames.com/33-24-month-calendar-printable/50%Daily2019-03-11 03:44
https://100frames.com/35-printable-calendar-sheet-from-november-2019/50%Daily2019-03-11 03:40
https://100frames.com/34-free-printable-calendars-that-you-can-type-on/50%Daily2019-03-11 03:41
https://100frames.com/32-digital-monthly-calendar-free-printable/50%Daily2019-03-11 03:37
https://100frames.com/32-depo-provera-calendar-2019-printable/50%Daily2019-03-11 03:36
https://100frames.com/32-printable-calendar-budget-planner/50%Daily2019-03-11 03:35
https://100frames.com/32-may-2019-2020-calendar/50%Daily2019-03-11 03:33
https://100frames.com/31-school-calendar-printable-2019-2020/50%Daily2019-03-11 03:31
https://100frames.com/32-one-year-calendar-2019/50%Daily2019-03-11 03:30
https://100frames.com/31-2019-august-calendar-template/50%Daily2019-03-11 03:27
https://100frames.com/33-printable-may-calendar-2019-with-holidays/50%Daily2019-03-11 03:27
https://100frames.com/31-printable-june-2019-calendar-month/50%Daily2019-03-11 03:26
https://100frames.com/31-sept-calendar/50%Daily2019-03-11 03:25
https://100frames.com/24-august-september-2019-calendar/50%Daily2019-03-11 03:23
https://100frames.com/31-pittsburgh-concert-calendar/50%Daily2019-03-11 03:21
https://100frames.com/28-telugu-calendar-2019-new-york/50%Daily2019-03-11 03:23
https://100frames.com/32-cpcc-calendar-2019/50%Daily2019-03-11 03:19
https://100frames.com/32-june-and-july-2019-calendar-printable/50%Daily2019-03-11 03:16
https://100frames.com/30-2019-calendar-printable-july/50%Daily2019-03-11 03:15
https://100frames.com/30-printable-months/50%Daily2019-03-11 03:13
https://100frames.com/30-blogilates-beginner-calendar/50%Daily2019-03-11 03:11
https://100frames.com/31-google-printable-calendar/50%Daily2019-03-11 03:11
https://100frames.com/32-calendar-for-2020-and-2021-printable/50%Daily2019-03-11 03:07
https://100frames.com/30-colorful-calendar-printable/50%Daily2019-03-11 03:06
https://100frames.com/31-blank-calendar-september-2019/50%Daily2019-03-11 03:04
https://100frames.com/25-cute-free-printable-monthly-calendar/50%Daily2019-03-11 03:02
https://100frames.com/6-ansel-adams-calendar/50%Daily2019-03-11 02:59
https://100frames.com/33-90-day-calendar-printable/50%Daily2019-03-11 03:00
https://100frames.com/31-tokidoki-printable-calendar/50%Daily2019-03-11 02:57
https://100frames.com/29-3-month-wall-calendar/50%Daily2019-03-11 02:56
https://100frames.com/24-printable-monthly-calendar-march-2019/50%Daily2019-03-11 02:55
https://100frames.com/30-large-printable-calendar-june-2019/50%Daily2019-03-11 02:56
https://100frames.com/23-printable-calendar-for-june-2019-with-pictures/50%Daily2019-03-11 02:53
https://100frames.com/34-p90x-printable-calendar/50%Daily2019-03-11 02:51
https://100frames.com/32-how-far-away-is-christmas/50%Daily2019-03-11 02:50
https://100frames.com/31-calendar-printable-free-2019/50%Daily2019-03-11 02:49
https://100frames.com/24-printable-nov-16-calendar/50%Daily2019-03-11 02:46
https://100frames.com/31-the-woodlands-event-calendar/50%Daily2019-03-11 02:45
https://100frames.com/32-printable-calendar-birthday-cupcakes/50%Daily2019-03-11 02:44
https://100frames.com/32-november-calendar-template-for-teachers/50%Daily2019-03-11 02:42
https://100frames.com/30-printable-calendar-2019-variables/50%Daily2019-03-11 02:41
https://100frames.com/31-printable-monthly-calendar-booklet/50%Daily2019-03-11 02:39
https://100frames.com/33-houston-concert-calendar/50%Daily2019-03-11 02:37
https://100frames.com/31-turn-clocks-back-fall-2019/50%Daily2019-03-11 02:35
https://100frames.com/33-mark-your-calendar/50%Daily2019-03-11 02:34
https://100frames.com/24-couch-to-5k-calendar-printable/50%Daily2019-03-11 02:32
https://100frames.com/31-therapy-attendance-calendar-2019-free-printable/50%Daily2019-03-11 02:30
https://100frames.com/30-free-printable-monthly-calendar-cute/50%Daily2019-03-11 02:30
https://100frames.com/24-september-2019-calendar-template/50%Daily2019-03-11 02:28
https://100frames.com/35-terminal-5-calendar/50%Daily2019-03-11 02:26
https://100frames.com/35-decoration-printable-march-calendar-2019/50%Daily2019-03-11 02:26
https://100frames.com/31-makeup-advent-calendar-2019/50%Daily2019-03-11 02:23
https://100frames.com/31-nov-month-calendar-2019/50%Daily2019-03-11 02:20
https://100frames.com/31-rio-carnival-2019-dates/50%Daily2019-03-11 02:20
https://100frames.com/31-pocket-calendar-printable/50%Daily2019-03-11 02:18
https://100frames.com/33-days-left-calendar-printable/50%Daily2019-03-11 02:15
https://100frames.com/31-summer-calendar-numbers-printable/50%Daily2019-03-11 02:15
https://100frames.com/33-set-up-calendar/50%Daily2019-03-11 02:13
https://100frames.com/30-2019-monthly-february-calendar-printable-calendar/50%Daily2019-03-11 02:11
https://100frames.com/25-blank-printable-calendar-april-2019/50%Daily2019-03-11 02:10
https://100frames.com/34-large-2019-calendar-printable/50%Daily2019-03-11 02:09
https://100frames.com/34-june-calendar-print-off/50%Daily2019-03-11 02:06
https://100frames.com/32-printable-august-september-calendar/50%Daily2019-03-11 02:05
https://100frames.com/30-printable-calendar-with-time-slots/50%Daily2019-03-11 02:03
https://100frames.com/30-editable-and-printable-calendars/50%Daily2019-03-11 02:01
https://100frames.com/33-free-printable-daily-appointment-calendar-template/50%Daily2019-03-11 02:00
https://100frames.com/35-daily-printable-november-2019-calendar/50%Daily2019-03-11 01:59
https://100frames.com/24-april-2019-calendar-printable-excel/50%Daily2019-03-11 01:56
https://100frames.com/31-printable-tapout-xt-workout-calendar/50%Daily2019-03-11 01:55
https://100frames.com/31-what-day-is-new-years-eve-on/50%Daily2019-03-11 01:54
https://100frames.com/32-september-blank-calendar-2019/50%Daily2019-03-11 01:51
https://100frames.com/31-calendar-coloring-pages-free-printable/50%Daily2019-03-11 01:51
https://100frames.com/26-monthly-calendar-for-february-2019/50%Daily2019-03-11 01:50
https://100frames.com/32-free-word-printable-calendar-2019/50%Daily2019-03-11 01:48
https://100frames.com/32-november-calendar-printable-canada/50%Daily2019-03-11 01:45
https://100frames.com/32-printable-mouse-pad-calendar/50%Daily2019-03-11 01:46
https://100frames.com/34-free-printable-calendar-pages-for-planner/50%Daily2019-03-11 01:43
https://100frames.com/31-pretty-may-printable-calendar/50%Daily2019-03-11 01:40
https://100frames.com/31-august-2019-calendar-pdf/50%Daily2019-03-11 01:41
https://100frames.com/32-april-2019-printable-calendar-vertical/50%Daily2019-03-11 01:38
https://100frames.com/31-blank-calendar-2019/50%Daily2019-03-11 01:36
https://100frames.com/31-printable-meal-prep-calendar/50%Daily2019-03-11 01:35
https://100frames.com/32-printable-arc-calendar/50%Daily2019-03-11 01:33
https://100frames.com/32-large-printable-calendar-july-2019/50%Daily2019-03-11 01:31
https://100frames.com/33-december-printable-calendar-pdf/50%Daily2019-03-11 01:31
https://100frames.com/35-2019-calendar-uk-august-2019-calendar-with-holidays-uk-yearly-printable-calendar/50%Daily2019-03-11 01:28
https://100frames.com/35-printable-calendar-for-kindergarten-classroom/50%Daily2019-03-11 01:25
https://100frames.com/30-bunny-calendar-2019-printable/50%Daily2019-03-11 01:24
https://100frames.com/30-printable-yearly-calendar-2019-16/50%Daily2019-03-11 01:22
https://100frames.com/31-2019-and-2019-calendar-printable-excel/50%Daily2019-03-11 01:21
https://100frames.com/34-printable-blank-calendar-july-and-august-2019/50%Daily2019-03-11 01:19
https://100frames.com/30-july-2005-calendar-printable/50%Daily2019-03-11 01:15
https://100frames.com/31-musd-school-calendar/50%Daily2019-03-11 01:16
https://100frames.com/33-countdown-calendar-for-christmas-printable/50%Daily2019-03-11 01:11
https://100frames.com/33-large-printable-calendar-template/50%Daily2019-03-11 01:09
https://100frames.com/33-rodriguez-high-school-calendar/50%Daily2019-03-11 01:07
https://100frames.com/32-free-printable-monthly-calendar-pdf/50%Daily2019-03-11 01:05
https://100frames.com/30-when-does-advent-start/50%Daily2019-03-11 01:04
https://100frames.com/33-december-2019-printable-calendar-monday-to-sunday/50%Daily2019-03-11 01:01
https://100frames.com/31-july-2019-calendar-printable-time-and-date/50%Daily2019-03-11 01:01
https://100frames.com/25-2019-calendar-november-printable/50%Daily2019-03-11 01:00
https://100frames.com/35-printable-calendar-2019-canada-with-holidays/50%Daily2019-03-11 00:58
https://100frames.com/34-free-blank-calendar-template/50%Daily2019-03-11 00:56
https://100frames.com/34-may-2019-printable-kids-calendar/50%Daily2019-03-11 00:55
https://100frames.com/32-cupertino-high-school-calendar/50%Daily2019-03-11 00:53
https://100frames.com/33-free-printable-marketing-calendar-pdf/50%Daily2019-03-11 00:51
https://100frames.com/33-free-printable-calendar-to-write-on-year-at-a-glance/50%Daily2019-03-11 00:50
https://100frames.com/30-printable-june-calendar-numbers/50%Daily2019-03-11 00:47
https://100frames.com/35-blank-november-calendar-for-teachers/50%Daily2019-03-11 00:47
https://100frames.com/32-fill-in-printable-calendars-2019/50%Daily2019-03-11 00:42
https://100frames.com/32-whats-happening-in-november-2019/50%Daily2019-03-11 00:42
https://100frames.com/35-printable-2019-calendar-2019/50%Daily2019-03-11 00:39
https://100frames.com/30-oracle-arena-events-calendar/50%Daily2019-03-11 00:35
https://100frames.com/33-printable-squat-challenge-calendar/50%Daily2019-03-11 00:35
https://100frames.com/31-calendars-for-2019/50%Daily2019-03-11 00:33
https://100frames.com/32-printable-calendar-schedule-templates-free/50%Daily2019-03-11 00:30
https://100frames.com/31-printable-april-calendar-pdf/50%Daily2019-03-11 00:31
https://100frames.com/31-printable-timeline-calendar/50%Daily2019-03-11 00:28